VJC285 VVCI-VVTS

Flight info

Callsign VJC285
Flight time N/A
Altitude 34000
Route VANUC1A VANUC DCT VIDAD Q1 HATIN/K0850F360 Q1 DOVIN DOVIN5E
Aircraft A21N/M-SDE2E3FGHIRWXY/LB1

Departure

Time 2026-04-11 02:48
Airport Cat Bi International Airport (VVCI)

Arrival

Time N/A
Airport Tan Son Nhat International Airport (VVTS)
Time Latitude Longitude Altitude Speed Heading
2026-04-11 02:27 20.82168 106.72572 30 ft 0 kts 342°
2026-04-11 02:34 20.82149 106.72579 30 ft 4 kts 341°
2026-04-11 02:35 20.82124 106.72588 30 ft 4 kts 341°
2026-04-11 02:35 20.82098 106.72596 30 ft 4 kts 348°
2026-04-11 02:35 20.82073 106.72598 30 ft 4 kts 24°
2026-04-11 02:35 20.82061 106.72583 30 ft 4 kts 64°
2026-04-11 02:36 20.82050 106.72557 30 ft 4 kts 69°
2026-04-11 02:36 20.82041 106.72530 30 ft 5 kts 73°
2026-04-11 02:36 20.82033 106.72502 30 ft 4 kts 72°
2026-04-11 02:36 20.82032 106.72498 30 ft 2 kts 72°
2026-04-11 02:40 20.82035 106.72507 30 ft 3 kts 72°
2026-04-11 02:40 20.82037 106.72538 30 ft 5 kts 102°
2026-04-11 02:40 20.82006 106.72571 30 ft 8 kts 160°
2026-04-11 02:40 20.81963 106.72558 30 ft 8 kts 231°
2026-04-11 02:41 20.81940 106.72500 30 ft 8 kts 252°
2026-04-11 02:41 20.81921 106.72435 30 ft 10 kts 252°
2026-04-11 02:41 20.81897 106.72357 30 ft 10 kts 252°
2026-04-11 02:41 20.81875 106.72289 30 ft 9 kts 243°
2026-04-11 02:42 20.81814 106.72268 30 ft 11 kts 167°
2026-04-11 02:42 20.81739 106.72293 29 ft 11 kts 162°
2026-04-11 02:42 20.81681 106.72289 29 ft 9 kts 245°
2026-04-11 02:42 20.81663 106.72217 29 ft 11 kts 253°
2026-04-11 02:43 20.81638 106.72131 28 ft 13 kts 252°
2026-04-11 02:43 20.81607 106.72028 28 ft 16 kts 252°
2026-04-11 02:43 20.81570 106.71906 29 ft 18 kts 252°
2026-04-11 02:43 20.81529 106.71769 29 ft 20 kts 252°
2026-04-11 02:44 20.81487 106.71628 31 ft 20 kts 252°
2026-04-11 02:44 20.81443 106.71481 32 ft 22 kts 252°
2026-04-11 02:44 20.81397 106.71328 31 ft 22 kts 252°
2026-04-11 02:44 20.81354 106.71182 31 ft 21 kts 252°
2026-04-11 02:45 20.81310 106.71039 31 ft 19 kts 252°
2026-04-11 02:45 20.81298 106.70946 31 ft 12 kts 283°
2026-04-11 02:45 20.81318 106.70862 31 ft 11 kts 287°
2026-04-11 02:45 20.81350 106.70831 30 ft 5 kts 355°
2026-04-11 02:46 20.81381 106.70860 30 ft 8 kts 76°
2026-04-11 02:46 20.81344 106.70906 31 ft 10 kts 159°
2026-04-11 02:46 20.81292 106.70927 31 ft 5 kts 136°
2026-04-11 02:46 20.81289 106.70968 31 ft 5 kts 73°
2026-04-11 02:47 20.81293 106.70981 31 ft 2 kts 72°
2026-04-11 02:47 20.81352 106.71180 31 ft 64 kts 72°
2026-04-11 02:47 20.81561 106.71882 29 ft 131 kts 72°
2026-04-11 02:47 20.81899 106.72988 67 ft 175 kts 74°
2026-04-11 02:48 20.82298 106.74214 690 ft 174 kts 75°
2026-04-11 02:48 20.82631 106.75453 1325 ft 173 kts 82°
2026-04-11 02:48 20.82615 106.76724 1786 ft 177 kts 110°
2026-04-11 02:48 20.82004 106.77900 2141 ft 188 kts 137°
2026-04-11 02:49 20.81030 106.78904 2639 ft 201 kts 142°
2026-04-11 02:49 20.79965 106.80007 3050 ft 226 kts 141°
2026-04-11 02:49 20.78810 106.81232 3482 ft 247 kts 141°
2026-04-11 02:49 20.77548 106.82581 4016 ft 264 kts 140°
2026-04-11 02:50 20.76214 106.84013 4638 ft 276 kts 140°
2026-04-11 02:50 20.74843 106.85484 5386 ft 281 kts 139°
2026-04-11 02:50 20.73451 106.86978 6170 ft 285 kts 139°
2026-04-11 02:50 20.72042 106.88488 6920 ft 289 kts 139°
2026-04-11 02:51 20.70627 106.90005 7683 ft 292 kts 139°
2026-04-11 02:51 20.69181 106.91553 8457 ft 296 kts 139°
2026-04-11 02:51 20.67717 106.93125 9238 ft 299 kts 140°
2026-04-11 02:51 20.66103 106.94519 9952 ft 299 kts 154°
2026-04-11 02:52 20.64136 106.95279 10361 ft 305 kts 176°
2026-04-11 02:52 20.61987 106.95320 10812 ft 313 kts 187°
2026-04-11 02:52 20.59826 106.95177 11474 ft 317 kts 187°
2026-04-11 02:52 20.57616 106.95037 12236 ft 319 kts 187°
2026-04-11 02:53 20.55391 106.94914 13010 ft 321 kts 187°
2026-04-11 02:53 20.53153 106.94800 13749 ft 323 kts 186°
2026-04-11 02:53 20.50896 106.94691 14394 ft 326 kts 187°
2026-04-11 02:53 20.48611 106.94583 14988 ft 331 kts 187°
2026-04-11 02:54 20.46294 106.94475 15573 ft 335 kts 187°
2026-04-11 02:54 20.44744 106.94404 15962 ft 338 kts 187°
2026-04-11 02:54 20.42373 106.94295 16533 ft 343 kts 187°
2026-04-11 02:54 20.39184 106.94149 17288 ft 349 kts 187°
2026-04-11 02:55 20.37538 106.94073 17681 ft 352 kts 188°
2026-04-11 02:55 20.35073 106.93962 18207 ft 356 kts 188°
2026-04-11 02:55 20.31759 106.93811 18842 ft 361 kts 187°
2026-04-11 02:55 20.30092 106.93735 19164 ft 363 kts 187°
2026-04-11 02:56 20.27551 106.93619 19657 ft 367 kts 187°
2026-04-11 02:56 20.24988 106.93502 20139 ft 370 kts 187°
2026-04-11 02:56 20.22397 106.93384 20625 ft 373 kts 186°
2026-04-11 02:56 20.19795 106.93266 21104 ft 376 kts 186°
2026-04-11 02:57 20.17159 106.93146 21584 ft 380 kts 186°
2026-04-11 02:57 20.14512 106.93025 22036 ft 383 kts 186°
2026-04-11 02:57 20.11837 106.92904 22495 ft 386 kts 185°
2026-04-11 02:57 20.09172 106.92784 22952 ft 389 kts 185°
2026-04-11 02:58 20.06465 106.92661 23411 ft 391 kts 185°
2026-04-11 02:58 20.03730 106.92537 23781 ft 394 kts 185°
2026-04-11 02:58 20.00971 106.92411 24153 ft 397 kts 185°
2026-04-11 02:58 19.98187 106.92284 24562 ft 399 kts 185°
2026-04-11 02:59 19.95435 106.92158 24945 ft 401 kts 185°
2026-04-11 02:59 19.92635 106.92032 25336 ft 403 kts 185°
2026-04-11 02:59 19.89819 106.91906 25707 ft 406 kts 185°
2026-04-11 02:59 19.86986 106.91779 26086 ft 408 kts 185°
2026-04-11 03:00 19.84137 106.91651 26484 ft 410 kts 185°
2026-04-11 03:00 19.81273 106.91521 26841 ft 413 kts 185°
2026-04-11 03:00 19.78389 106.91388 27197 ft 416 kts 185°
2026-04-11 03:00 19.75527 106.91258 27546 ft 418 kts 185°
2026-04-11 03:01 19.72606 106.91127 27887 ft 421 kts 185°
2026-04-11 03:01 19.69669 106.90994 28243 ft 423 kts 185°
2026-04-11 03:01 19.66709 106.90860 28572 ft 426 kts 185°
2026-04-11 03:01 19.63737 106.90725 28917 ft 428 kts 185°
2026-04-11 03:02 19.60751 106.90590 29249 ft 430 kts 185°
2026-04-11 03:02 19.57743 106.90455 29572 ft 432 kts 185°
2026-04-11 03:02 19.54767 106.90322 29858 ft 435 kts 185°
2026-04-11 03:02 19.51734 106.90184 30135 ft 437 kts 185°
2026-04-11 03:03 19.48690 106.90047 30408 ft 438 kts 185°
2026-04-11 03:03 19.45634 106.89909 30667 ft 440 kts 185°
2026-04-11 03:03 19.42559 106.89771 30942 ft 441 kts 185°
2026-04-11 03:03 19.39484 106.89631 31215 ft 443 kts 185°
2026-04-11 03:04 19.36399 106.89491 31467 ft 444 kts 185°
2026-04-11 03:04 19.33344 106.89354 31780 ft 444 kts 185°
2026-04-11 03:04 19.30259 106.89215 32123 ft 443 kts 185°
2026-04-11 03:04 19.27190 106.89076 32461 ft 442 kts 185°
2026-04-11 03:05 19.24110 106.88938 32771 ft 441 kts 185°
2026-04-11 03:05 19.21049 106.88798 33089 ft 440 kts 185°
2026-04-11 03:05 19.17988 106.88662 33413 ft 439 kts 185°
2026-04-11 03:05 19.14927 106.88525 33715 ft 439 kts 185°
2026-04-11 03:06 19.11882 106.88388 33822 ft 439 kts 185°
2026-04-11 03:06 19.05726 106.88111 33828 ft 451 kts 184°
2026-04-11 03:07 18.99397 106.87827 33810 ft 456 kts 184°
2026-04-11 03:07 18.93036 106.87544 33804 ft 456 kts 184°
2026-04-11 03:08 18.83545 106.87888 33800 ft 461 kts 167°
2026-04-11 03:08 18.77612 106.90429 33810 ft 463 kts 158°
2026-04-11 03:09 18.71734 106.93228 33811 ft 463 kts 158°
2026-04-11 03:09 18.65854 106.95982 33811 ft 463 kts 158°
2026-04-11 03:10 18.59958 106.98735 33815 ft 463 kts 158°
2026-04-11 03:10 18.54096 107.01461 33815 ft 463 kts 158°
2026-04-11 03:11 18.48203 107.04192 33815 ft 462 kts 158°
2026-04-11 03:11 18.42305 107.06930 33821 ft 462 kts 158°
2026-04-11 03:12 18.36410 107.09671 33825 ft 462 kts 158°
2026-04-11 03:12 18.30552 107.12382 33825 ft 462 kts 158°
2026-04-11 03:13 18.24666 107.15114 33824 ft 462 kts 158°
2026-04-11 03:13 18.18782 107.17842 33827 ft 462 kts 158°
2026-04-11 03:14 18.12889 107.20573 33830 ft 462 kts 158°
2026-04-11 03:14 18.07048 107.23275 33831 ft 461 kts 158°
2026-04-11 03:15 18.01186 107.26050 33833 ft 461 kts 157°
2026-04-11 03:15 17.95343 107.28839 33836 ft 461 kts 157°
2026-04-11 03:16 17.89491 107.31620 33837 ft 461 kts 156°
2026-04-11 03:16 17.83665 107.34385 33834 ft 461 kts 156°
2026-04-11 03:17 17.77818 107.37156 33841 ft 461 kts 156°
2026-04-11 03:17 17.71985 107.39919 33844 ft 461 kts 156°
2026-04-11 03:18 17.66140 107.42688 33847 ft 461 kts 156°
2026-04-11 03:18 17.60295 107.45453 33844 ft 461 kts 156°
2026-04-11 03:19 17.54448 107.48216 33844 ft 461 kts 156°
2026-04-11 03:19 17.48635 107.50964 33847 ft 460 kts 156°
2026-04-11 03:20 17.42776 107.53729 33845 ft 460 kts 156°
2026-04-11 03:20 17.36966 107.56470 33845 ft 460 kts 156°
2026-04-11 03:21 17.31127 107.59222 33847 ft 460 kts 156°
2026-04-11 03:21 17.25298 107.61970 33849 ft 460 kts 156°
2026-04-11 03:22 17.19454 107.64721 33842 ft 460 kts 156°
2026-04-11 03:22 17.13612 107.67471 33841 ft 459 kts 156°
2026-04-11 03:23 17.07832 107.70251 33846 ft 459 kts 155°
2026-04-11 03:23 17.02036 107.73078 33844 ft 459 kts 155°
2026-04-11 03:24 16.96243 107.75892 33845 ft 459 kts 155°
2026-04-11 03:24 16.90437 107.78706 33845 ft 459 kts 155°
2026-04-11 03:25 16.84676 107.81496 33842 ft 458 kts 155°
2026-04-11 03:25 16.78872 107.84305 33846 ft 459 kts 155°
2026-04-11 03:26 16.73073 107.87111 33844 ft 459 kts 155°
2026-04-11 03:26 16.67318 107.89896 33845 ft 459 kts 155°
2026-04-11 03:27 16.61526 107.92702 33843 ft 459 kts 154°
2026-04-11 03:27 16.55732 107.95507 33846 ft 459 kts 155°
2026-04-11 03:28 16.49966 107.98297 33844 ft 458 kts 155°
2026-04-11 03:28 16.44179 108.01088 33846 ft 458 kts 154°
2026-04-11 03:29 16.38387 108.03881 33847 ft 458 kts 154°
2026-04-11 03:29 16.32591 108.06672 33858 ft 458 kts 154°
2026-04-11 03:30 16.26804 108.09459 33864 ft 458 kts 154°
2026-04-11 03:30 16.21063 108.12223 33869 ft 458 kts 154°
2026-04-11 03:31 16.15270 108.15010 33873 ft 458 kts 154°
2026-04-11 03:31 16.09484 108.17791 33875 ft 457 kts 154°
2026-04-11 03:32 16.03417 108.19711 33872 ft 459 kts 173°
2026-04-11 03:32 15.97007 108.19701 33881 ft 461 kts 181°
2026-04-11 03:33 15.90631 108.19512 33876 ft 461 kts 180°
2026-04-11 03:33 15.84223 108.19366 33870 ft 461 kts 180°
2026-04-11 03:34 15.77801 108.19228 33868 ft 460 kts 180°
2026-04-11 03:34 15.71424 108.19090 33865 ft 460 kts 180°
2026-04-11 03:35 15.65011 108.18952 33871 ft 461 kts 180°
2026-04-11 03:35 15.58599 108.18812 33876 ft 461 kts 180°
2026-04-11 03:36 15.52173 108.18674 33877 ft 461 kts 180°
2026-04-11 03:36 15.45758 108.18537 33882 ft 461 kts 180°
2026-04-11 03:37 15.39364 108.18400 33886 ft 461 kts 180°
2026-04-11 03:37 15.32942 108.18261 33900 ft 461 kts 180°
2026-04-11 03:38 15.26519 108.18124 33910 ft 461 kts 180°
2026-04-11 03:38 15.20149 108.17987 33920 ft 461 kts 180°
2026-04-11 03:39 15.13722 108.17848 33926 ft 461 kts 180°
2026-04-11 03:39 15.07314 108.17710 33939 ft 461 kts 180°
2026-04-11 03:40 15.00894 108.17569 33951 ft 460 kts 180°
2026-04-11 03:40 14.94541 108.17429 33959 ft 459 kts 180°
2026-04-11 03:41 14.88153 108.17286 33965 ft 459 kts 180°
2026-04-11 03:41 14.81759 108.17145 33969 ft 459 kts 180°
2026-04-11 03:42 14.75370 108.17005 33969 ft 458 kts 180°
2026-04-11 03:42 14.70060 108.16890 33969 ft 458 kts 180°
2026-04-11 03:43 14.63685 108.16747 33968 ft 458 kts 180°
2026-04-11 03:43 14.56261 108.16583 33973 ft 457 kts 179°
2026-04-11 03:44 14.50967 108.16467 33970 ft 458 kts 179°
2026-04-11 03:44 14.44583 108.16326 33972 ft 458 kts 180°
2026-04-11 03:45 14.38211 108.16185 33969 ft 458 kts 179°
2026-04-11 03:45 14.31827 108.16045 33970 ft 458 kts 180°
2026-04-11 03:46 14.25441 108.15908 33961 ft 458 kts 179°
2026-04-11 03:46 14.19093 108.15773 33961 ft 458 kts 179°
2026-04-11 03:47 14.12708 108.15635 33956 ft 459 kts 180°
2026-04-11 03:47 14.06328 108.15498 33961 ft 458 kts 179°
2026-04-11 03:48 13.99958 108.15362 33961 ft 458 kts 179°
2026-04-11 03:48 13.93564 108.15224 33951 ft 459 kts 179°
2026-04-11 03:49 13.87217 108.15083 33945 ft 458 kts 179°
2026-04-11 03:49 13.80831 108.14943 33941 ft 458 kts 179°
2026-04-11 03:50 13.74450 108.14804 33943 ft 459 kts 179°
2026-04-11 03:50 13.68071 108.14663 33933 ft 459 kts 179°
2026-04-11 03:51 13.61728 108.14523 33929 ft 452 kts 179°
2026-04-11 03:51 13.55421 108.14386 33925 ft 459 kts 179°
2026-04-11 03:52 13.49018 108.14246 33923 ft 460 kts 179°
2026-04-11 03:52 13.42604 108.14105 33922 ft 459 kts 179°
2026-04-11 03:53 13.36211 108.13966 33926 ft 459 kts 179°
2026-04-11 03:53 13.29866 108.13824 33924 ft 458 kts 180°
2026-04-11 03:54 13.23542 108.13668 33920 ft 450 kts 180°
2026-04-11 03:54 13.17218 108.13515 33929 ft 460 kts 180°
2026-04-11 03:55 13.10808 108.13362 33925 ft 461 kts 180°
2026-04-11 03:55 13.04386 108.13208 33930 ft 461 kts 180°
2026-04-11 03:56 12.97986 108.13055 33922 ft 462 kts 180°
2026-04-11 03:56 12.91570 108.12900 33920 ft 456 kts 180°
2026-04-11 03:57 12.85302 108.12748 33916 ft 448 kts 180°
2026-04-11 03:57 12.79064 108.12601 33921 ft 448 kts 179°
2026-04-11 03:58 12.72825 108.12451 33926 ft 447 kts 179°
2026-04-11 03:58 12.66630 108.12302 33924 ft 447 kts 179°
2026-04-11 03:59 12.60433 108.12175 33925 ft 442 kts 179°
2026-04-11 03:59 12.54293 108.12055 33929 ft 445 kts 179°
2026-04-11 04:00 12.48075 108.11930 33934 ft 447 kts 179°
2026-04-11 04:00 12.41859 108.11807 33942 ft 447 kts 179°
2026-04-11 04:01 12.35665 108.11684 33947 ft 447 kts 179°
2026-04-11 04:01 12.29441 108.11559 33890 ft 444 kts 179°
2026-04-11 04:02 12.26361 108.11497 33570 ft 442 kts 179°
2026-04-11 04:02 12.23276 108.11435 33297 ft 441 kts 179°
2026-04-11 04:02 12.20216 108.11373 33033 ft 439 kts 179°
2026-04-11 04:02 12.17161 108.11313 32779 ft 438 kts 179°
2026-04-11 04:03 12.14152 108.11254 32537 ft 436 kts 179°
2026-04-11 04:03 12.11120 108.11194 32288 ft 435 kts 179°
2026-04-11 04:03 12.08107 108.11134 32047 ft 433 kts 179°
2026-04-11 04:03 12.05086 108.11074 31808 ft 431 kts 179°
2026-04-11 04:04 12.02090 108.11015 31560 ft 430 kts 179°
2026-04-11 04:04 11.99104 108.10956 31339 ft 428 kts 179°
2026-04-11 04:04 11.98102 108.10936 31259 ft 427 kts 179°
2026-04-11 04:05 11.91299 108.09829 30718 ft 430 kts 199°